Location: Moscow
(55.7500°N, 37.5830°E)
Time: 13:10:42
(UTC+03:00)

S-56A Canister/Altair - Pass Details

Date: 01 December 2021
Orbit: 633 x 2499 km, 38.9° (Epoch: 17 January)

Event Time Altitude Azimuth Distance (km) Brightness Sun altitude
Rises 01:52:40 0° 220° (SW) 4,405 - -51.8°
Reaches altitude 10° 01:57:47 10° 197° (SSW) 2,995 - -51.4°
Maximum altitude 02:00:51 13° 171° (S) 2,506 - -51.1°
Drops below altitude 10° 02:03:33 10° 143° (SE) 2,532 - -50.9°
Sets 02:07:09 0° 116° (ESE) 3,218 - -50.5°
